This is the latest recevied weather packets stored in our database for station/object KK4JIV-13. If no packets are shown the sender has not sent any weather packets the latest 1 day(s).
| Time | Temp. | Humidity | Pressure | Rain* | Wind** | Luminosity | Snow |
|---|---|---|---|---|---|---|---|
| 1778036089 | 19.44° C | 81% | 1015.4 hPa | 0 mm | - | 0 W/m² | - |
| 1778035785 | 19.44° C | 80% | 1015.6 hPa | 0 mm | - | 0 W/m² | - |
| 1778035482 | 20° C | 79% | 1015.2 hPa | 0 mm | - | 0 W/m² | - |
| 1778035178 | 20° C | 79% | 1015.3 hPa | 0 mm | - | 0 W/m² | - |
| 1778034875 | 20° C | 79% | 1015 hPa | 0 mm | - | 0 W/m² | - |
| 1778034572 | 20° C | 77% | 1015.1 hPa | 0 mm | - | 0 W/m² | - |
| 1778034269 | 20.56° C | 75% | 1015.2 hPa | 0 mm | - | 0 W/m² | - |
| 1778033967 | 20.56° C | 75% | 1015.4 hPa | 0 mm | - | 0 W/m² | - |
| 1778033664 | 21.11° C | 74% | 1015.2 hPa | 0 mm | - | 0 W/m² | - |
| 1778033361 | 21.67° C | 72% | 1015 hPa | 0 mm | - | 0 W/m² | - |
| 1778033059 | 21.67° C | 72% | 1014.8 hPa | 0 mm | - | 0 W/m² | - |
| 1778032756 | 21.67° C | 70% | 1014.8 hPa | 0 mm | - | 0 W/m² | - |
| 1778032454 | 22.22° C | 70% | 1014.8 hPa | 0 mm | - | 0 W/m² | - |
| 1778032150 | 20.56° C | 75% | 1014.7 hPa | 0 mm | - | 0 W/m² | - |
| 1778031847 | 20.56° C | 75% | 1014.6 hPa | 0 mm | - | 0 W/m² | - |
| 1778031544 | 20.56° C | 75% | 1014.7 hPa | 0 mm | - | 0 W/m² | - |
| 1778031243 | 21.11° C | 73% | 1014.4 hPa | 0 mm | - | 0 W/m² | - |
| 1778030937 | 21.67° C | 72% | 1014.4 hPa | 0 mm | - | 0 W/m² | - |
| 1778030634 | 21.67° C | 71% | 1014.6 hPa | 0 mm | - | 0 W/m² | - |
| 1778029726 | 22.78° C | 67% | 1014.5 hPa | 0 mm | - | 0 W/m² | - |
| 1778029424 | 22.78° C | 66% | 1014.5 hPa | 0 mm | - | 0 W/m² | - |
| 1778028817 | 23.33° C | 64% | 1014.5 hPa | 0 mm | - | 0 W/m² | - |
| 1778028513 | 23.89° C | 63% | 1014.4 hPa | 0 mm | - | 0 W/m² | - |
| 1778028211 | 23.89° C | 61% | 1014.3 hPa | 0 mm | - | 0 W/m² | - |
| 1778027907 | 24.44° C | 60% | 1014.5 hPa | 0 mm | - | 0 W/m² | - |
* Rain latest hour (hover to see other rain measurements)
** Current wind speed in m/s (hover to see current wind gust speed)